Regional Weather Roundup
Issued by NWS Burlington, VT

Home | Current Version | Previous Version | Text Only | Print | Product List | Glossary On
Versions: 1 2 3 4 5 6 7 8 9 10 11 12 13 14 15 16 17 18 19 20 21 22 23 24 25 26 27 28 29 30 31 32 33 34 35 36 37 38 39 40 41 42 43 44 45 46 47 48 49 50
000
ASUS41 KBTV 220910
RWRBTV
VERMONT REGIONAL WEATHER ROUNDUP
NATIONAL WEATHER SERVICE BURLINGTON VT
500 AM EDT FRI MAY 22 2015

NOTE: "FAIR" INDICATES FEW OR NO CLOUDS BELOW 12,000 FEET WITH NO
SIGNIFICANT WEATHER AND/OR OBSTRUCTIONS TO VISIBILITY.

* THESE REPORTS ARE NOT UNDER NWS QUALITY CONTROL AND/OR DO NOT
  REPORT WEATHER SUCH AS PRECIPITATION AND FOG.

VTZ001>019-221000-
_____VERMONT_____


CITY           SKY/WX    TMP DP  RH WIND       PRES   REMARKS
BURLINGTON     CLOUDY    50  39  66 E5        29.78S
MONTPELIER     PTSUNNY   47  34  60 CALM      29.82R
MORRISVILLE    PTSUNNY   46  38  73 CALM      29.80R
ST. JOHNSBURY*   N/A     48  43  82 MISG      29.77S
LYNDONVILLE*     N/A     48  37  65 CALM      29.80R
MIDDLEBURY*    PTSUNNY   50  36  57 SE3       29.79S
RUTLAND*       MOSUNNY   45  37  76 E5        29.82R
SPRINGFIELD    CLOUDY    49  42  77 CALM      29.81R
HIGHGATE*      CLOUDY    52  35  51 S3        29.75S
NEWPORT*         N/A     49  32  51 S5        29.78S
BENNINGTON     PTSUNNY   47  42  83 CALM      29.83R
SUTTON*          N/A     45 N/A N/A MISG        N/A

_____LAKE CHAMPLAIN_____


CITY           SKY/WX    TMP DP  RH WIND       PRES   REMARKS

$$

NYZ007-026>031-035-052-083-221000-
_____NORTHERN NEW YORK_____


CITY           SKY/WX    TMP DP  RH WIND       PRES   REMARKS
PLATTSBURGH    CLOUDY    54  34  46 VRB5      29.76S
SARANAC LAKE   MOSUNNY   43  34  70 VRB3      29.78R
MASSENA        CLOUDY    50  41  71 N13G21    29.82R
OGDENSBURG*    PTSUNNY   48  39  71 N10G16    29.84R
POTSDAM*       CLOUDY   -24 -27  83 N9        29.83R
WATERTOWN      PTSUNNY   47  40  76 SW7       29.84R
FT DRUM        CLOUDY    49  38  66 W7        29.83R
ALBANY         MOSUNNY   52  39  61 S3        29.84R
GLENS FALLS    MOSUNNY   45  40  82 CALM      29.81S

$$
NHZ002-005-011-221000-
_____NEW HAMPSHIRE_____


CITY           SKY/WX    TMP DP  RH WIND       PRES   REMARKS
LEBANON        CLOUDY    48  41  76 CALM      29.79S
KEENE          CLOUDY    48  43  81 SE6       29.83R
MT WASHINGTON  FLURRIES  28  27  93 W21         N/A  WCI  15
PLYMOUTH       CLOUDY    48  46  91 CALM      29.78S
WHITEFIELD     CLOUDY    46  41  82 N3        29.78F

$$

_____REGIONAL QUEBEC LOCATIONS_____


CITY           SKY/WX    TMP DP  RH WIND       PRES   REMARKS
MONTREAL       CLOUDY    50  43  76 N9        29.76R
QUEBEC CITY    LGT RAIN  48  43  81 E9        29.74R
SHERBROOKE     CLOUDY    43  39  87 SE2       29.75S

_____REGIONAL ONTARIO LOCATIONS_____


CITY           SKY/WX    TMP DP  RH WIND       PRES   REMARKS
OTTAWA         MOSUNNY   45  32  61 NW14      29.85R

______KEY______
VSB  - VISIBILITY IN MILES
WCI  - WIND CHILL INDEX
HX   - HEAT INDEX
$$
NNNN



USA.gov is the U.S. government's official web portal to all federal, state and local government web resources and services.